Погода в Серове

Поиск расширенной информации на нашем сайте:

Полезная информация:

Новости сайта



02.01.2020
Опубликован Долгосрочный прогноз погоды по городам России и ближнего зарубежья на январь 2020 года.
Карты: Прогноз на январь и февраль 2020 года, Сравнение прогнозируемой аномалии приземной температуры воздуха на январь 2020 года по разным моделям.




Погода в Серове - сегодня

Время (UTC), дата Ветер
(°,м/с) 
Видим.   Явления Облачность Т
(°С)
Тd
(°С)
f(%) Тe
(°С)
Pmin
(гПа)
dP
(гПа)
Po
(мм)
O2
(г/м3)
Тmin Tmax R s Состояние
почвы
00 19.01.20 тихо ()   10 км    ясно 
-13.6 -17.9 70 -14  1021.8  1.6  754  321           
03 19.01.20 290 (З) 10 км    ясно 
-18.1 -20.6 81 -21  1023.1  755  327  -19.1      38  равномерный
сухой снег
100% 
06 19.01.20 тихо ()   20000 м    4/4 600 м 
[Sc]
-18 -20.5 81 -18  1023.9  0.8  755  327  -20.5         
09 19.01.20 тихо ()   20000 м    8/8 600 м 
[Sc]
-14.3 -17.8 75 -14  1023.1  0.8  755  322           
12 19.01.20 050 (СВ) 10 км    10/10 600 м 
[Sc]
-14.2 -17.2 78 -14  1022.5  -0.6  754  322           
15 19.01.20 070 (В) 10 км    10/10 600 м 
[Sc]
-13.9 -16.7 79 -14  1021.7  -0.8  754  321    -13.8       
18 19.01.20 050 (СВ) 10 км    10/10 600 м 
[Sc]
-13.7 -16 83 -14  1021.4  -0.3  754  321           
21 19.01.20 030 (СВ) 10 км    10/10 600 м 
[Sc]
-13.4 -16.1 80 -16  1020.7  -0.6  753  321           
00 20.01.20 360 (С) 10 км    10/10 600 м 
[Sc]
-14.3 -17.2 79 -14  1020.3  -0.5  753  322           
03 20.01.20 330 (СЗ) 2000 м  слаб. снег  10/10 300 м 
[Frnb]
-15.6 -18.5 78 -16  1019.8  -0.6  752  323  -15.6    0.0  38  равномерный
сухой снег
100% 
06 20.01.20 010 (С) 10 км  слаб. снег  10/10 300 м 
[Frnb]
-16 -18.8 79 -16  1020.1  0.3  753  324  -16.4         
09 20.01.20 020 (С) 10 км  слаб. снег  10/10 300 м 
[Frnb]
-14.6 -17.6 78 -17  1019.6  -0.4  752  322           
12 20.01.20 360 (С) 2000 м  слаб. снег  10/10 300 м 
[Frnb]
-16.2 -18.7 81 -16  1019.1  -0.5  752  324           
15 20.01.20 тихо ()   2000 м  слаб. снег  10/10 300 м 
[Frnb]
-19.1 -21.8 79 -19  1018.9  -0.5  752  327    -14.2  0.4     
18 20.01.20 290 (З) 2000 м  слаб. снег  6/6 300 м 
[Frnb]
-21.4 -24.4 77 -22  1018.2  -0.8  751  330           
21 20.01.20 тихо ()   2000 м  слаб. снег  10/10 300 м 
[Frnb]
-19.7 -22.5 78 -20  1016.5  -1.6  750  327           
00 21.01.20 тихо ()   2000 м  слаб. снег  10/10 300 м 
[Frnb]
-19.1 -21.9 79 -19  1014.9  -1.5  749  326           
03 21.01.20 120 (ЮВ) 2000 м  слаб. снег  10/10 300 м 
[Frnb]
-18.4 -21 80 -21  1013.3  -1.5  747  325  -22.1    0.2  39  равномерный
сухой снег
100% 
06 21.01.20 130 (ЮВ) 20000 м  {снег}  10/10 600 м 
[Sc]
-17.2 -19.9 80 -20  1010.9  -2.3  746  322           
09 21.01.20 130 (ЮВ) 20000 м  {снег}  9/9 600 м 
[Sc]
-14.5 -16.8 83 -17  1008.2  -2.5  744  318           
12 21.01.20 150 (ЮВ) 2000 м  в посл. час снег{ливн. осадки}  8/8 300 м кучево-дожд. 
[Cb calv]
-13.3 -15.6 83 -15  1005.4  -2.6  742  316           
15 21.01.20 120 (ЮВ) 10 км    10/10 600 м 
[Sc]
-11.2 -13.2 85 -11  1001.9  -3.3  739  312    -11.2  0.0     
18 21.01.20 130 (ЮВ) 10 км    10/10 600 м 
[Sc]
-8.3 -10.1 87 -10  998.4  -3.3  737  307           
21 21.01.20 160 (Ю) 10 км    10/10 600 м 
[Sc]
-7.4 -9.2 87 -11  994.9  -3.4  734  305           
00 22.01.20 150 (ЮВ) 5{11}  10 км    10/10 600 м 
[Sc]
-6.7 -8.7 86 -11  990.7  -4  731  303           
Время (UTC), дата Ветер
(°,м/с) 
Видим.   Явления Облачность Т
(°С)
Тd
(°С)
f(%) Тe
(°С)
Pmin
(гПа)
dP
(гПа)
Po
(мм)
O2
(г/м3)
Тmin Tmax R s Состояние
почвы

Для получения пояснительной информации подведите курсор к названию столбца.

ПОГОДА в Серове - архив

Всё, что Вы хотите узнать о погоде в Серове - удобно и подробно!

Выберите нужную дату (начиная с 1 января 2019* года) и нажмите кнопку "Найти".
Будут отображены архивные сводки погоды по пункту Серов, начиная с указанной даты.


Отображать данные в формате CSV (для использования в таблицах Excel)


Внимание! Наш архив погоды предназначен исключительно для личного некоммерческого использования в познавательных целях. Если Вам необходимы официальные справки о состоянии погоды (для производственных, юридических, коммерческих и т.п. целей), обращайтесь в органы Росгидромета.

*Примечание: данная дата относится к архиву по метеостанциям СССР (Россия, СНГ, Балтия).
Архив по метеостанциям Зарубежной Европы и Азии (кроме Китая) хранится 10 дней, по другим регионам земного шара (Китай, Африка, Америка, Австралия, Океания) - 1 день.

Серов - район местоположения метеостанции


Название, широта, долгота, высота метеостанции:
Серов 59.6°ш. 60.5°д. 130 м над ур. моря [Российская Федерация]

Дополнительная информация

В oтличие oт бoльшинства пoгoдных сайтoв мы публикуем пoдрoбную метеoинфoрмацию в детальнoм прoфессиoнальнoм фoрмате.

Характеристики температуры и влажнoсти вoздуха измеряются на высoте 2 м в тени вдали oт зданий и деревьев.
Скoрoсть ветра измеряется на высoте 10 м (на урoвне рoста челoвека скoрoсть ветра ниже в 1.5-2 раза). Если метеoстанция нахoдится в гoрoде или в лесу, тo скoрoсть ветра занижена на 2-4 м/с пo сравнению с oткрытым местoм. Скoрoсть ветра над акватoриями крупных рек и oзёр, а также на вершинах хoлмoв на 2-5 м/с выше, чем в oбычных услoвиях.
Атмoсфернoе давление в разных тoчках местнoсти мoжет значительнo oтличаться oт давления на метеoстанции, в зависимoсти oт услoвий рельефа (при пoдъёме на 10 м давление пoнижается примернo на 1 мм рт.ст.).